Hourly Weather Ruda

Today, 22 April, Thursday

Time Temperature Precipitation Wind Pressure Humidity
00:00 +7°C° 0.1 mm 2 mps 745 mmHg 84%
01:00 +6°C° 0.1 mm 2 mps 745 mmHg 88%
02:00 +5°C° 0.3 mm 3 mps 745 mmHg 88%
03:00 +4°C° 0.3 mm 3 mps 745 mmHg 89%
04:00 +4°C° 0.3 mm 3 mps 745 mmHg 90%
05:00 +4°C° 0.1 mm 4 mps 746 mmHg 85%
06:00 +3°C° 0.1 mm 5 mps 746 mmHg 80%
07:00 +3°C° 0.1 mm 5 mps 746 mmHg 74%
08:00 +4°C° 0 mm 6 mps 746 mmHg 68%
09:00 +5°C° 0 mm 6 mps 746 mmHg 62%
10:00 +7°C° 0 mm 6 mps 747 mmHg 56%
11:00 +6°C° 0.2 mm 7 mps 747 mmHg 55%
12:00 +6°C° 0.2 mm 7 mps 747 mmHg 54%
13:00 +6°C° 0.2 mm 7 mps 747 mmHg 52%
14:00 +6°C° 0.3 mm 7 mps 747 mmHg 56%
15:00 +6°C° 0.3 mm 7 mps 747 mmHg 60%
16:00 +5°C° 0.3 mm 6 mps 747 mmHg 64%
17:00 +5°C° 0.1 mm 5 mps 747 mmHg 68%
18:00 +4°C° 0.1 mm 4 mps 747 mmHg 72%
19:00 +1°C° 0.1 mm 4 mps 748 mmHg 75%
20:00 +1°C° 0 mm 4 mps 748 mmHg 76%
21:00 +1°C° 0 mm 4 mps 748 mmHg 77%
22:00 0°C° 0 mm 4 mps 748 mmHg 78%
23:00 0°C° 0 mm 5 mps 748 mmHg 82%

Tomorrow, 23 April, Friday

Time Temperature Precipitation Wind Pressure Humidity
00:00 0°C° 0 mm 5 mps 748 mmHg 86%
01:00 -1°C° 0 mm 5 mps 748 mmHg 90%
02:00 0°C° 0.1 mm 5 mps 748 mmHg 90%
03:00 0°C° 0.1 mm 5 mps 748 mmHg 90%
04:00 0°C° 0.1 mm 5 mps 749 mmHg 90%
05:00 +1°C° 0.2 mm 5 mps 749 mmHg 85%
06:00 +1°C° 0.2 mm 6 mps 749 mmHg 80%
07:00 +2°C° 0.2 mm 6 mps 750 mmHg 76%
08:00 +3°C° 0.1 mm 6 mps 750 mmHg 67%
09:00 +4°C° 0.1 mm 6 mps 750 mmHg 59%
10:00 +5°C° 0.1 mm 6 mps 750 mmHg 50%
11:00 +5°C° 0.2 mm 6 mps 750 mmHg 51%
12:00 +5°C° 0.2 mm 6 mps 750 mmHg 52%
13:00 +6°C° 0.2 mm 5 mps 750 mmHg 54%
14:00 +5°C° 0.1 mm 5 mps 750 mmHg 52%
15:00 +5°C° 0.1 mm 5 mps 750 mmHg 51%
16:00 +5°C° 0.1 mm 5 mps 750 mmHg 50%
17:00 +3°C° 0 mm 5 mps 751 mmHg 55%
18:00 +1°C° 0 mm 5 mps 751 mmHg 60%
19:00 0°C° 0 mm 4 mps 752 mmHg 66%
20:00 -1°C° 0 mm 4 mps 752 mmHg 71%
21:00 -1°C° 0 mm 4 mps 752 mmHg 76%
22:00 -2°C° 0 mm 4 mps 753 mmHg 82%
23:00 -2°C° 0 mm 4 mps 753 mmHg 80%

Day after tomorrow, 24 April, Saturday

Time Temperature Precipitation Wind Pressure Humidity
00:00 -2°C° 0 mm 4 mps 753 mmHg 77%
01:00 -2°C° 0 mm 4 mps 753 mmHg 75%
02:00 -2°C° 0 mm 4 mps 753 mmHg 75%
03:00 -1°C° 0 mm 3 mps 753 mmHg 75%
04:00 -2°C° 0 mm 3 mps 753 mmHg 75%
05:00 -1°C° 0 mm 4 mps 753 mmHg 68%
06:00 +1°C° 0 mm 5 mps 753 mmHg 61%
07:00 +2°C° 0 mm 5 mps 753 mmHg 54%
08:00 +3°C° 0 mm 6 mps 753 mmHg 48%
09:00 +5°C° 0 mm 6 mps 753 mmHg 42%
10:00 +6°C° 0 mm 7 mps 753 mmHg 36%
11:00 +6°C° 0 mm 7 mps 753 mmHg 36%
12:00 +6°C° 0 mm 7 mps 753 mmHg 36%
13:00 +6°C° 0 mm 7 mps 753 mmHg 36%
14:00 +5°C° 0 mm 7 mps 753 mmHg 40%
15:00 +5°C° 0 mm 7 mps 753 mmHg 43%
16:00 +4°C° 0 mm 7 mps 753 mmHg 46%
17:00 +3°C° 0 mm 6 mps 753 mmHg 51%
18:00 +1°C° 0 mm 5 mps 753 mmHg 55%
19:00 0°C° 0 mm 4 mps 753 mmHg 59%
20:00 -1°C° 0 mm 4 mps 753 mmHg 66%
21:00 -2°C° 0 mm 4 mps 753 mmHg 74%
22:00 -2°C° 0 mm 4 mps 753 mmHg 81%
23:00 -2°C° 0 mm 4 mps 754 mmHg 83%

25 April, Sunday

Time Temperature Precipitation Wind Pressure Humidity
00:00 -2°C° 0 mm 4 mps 754 mmHg 85%
01:00 -2°C° 0 mm 4 mps 754 mmHg 87%
02:00 -2°C° 0 mm 4 mps 754 mmHg 87%
03:00 -2°C° 0 mm 4 mps 754 mmHg 86%
04:00 -3°C° 0 mm 4 mps 754 mmHg 86%
05:00 -1°C° 0 mm 5 mps 754 mmHg 78%
06:00 0°C° 0 mm 5 mps 754 mmHg 70%
07:00 +1°C° 0 mm 6 mps 754 mmHg 61%
08:00 +2°C° 0.2 mm 6 mps 754 mmHg 63%
09:00 +2°C° 0.2 mm 6 mps 754 mmHg 66%
10:00 +3°C° 0.2 mm 7 mps 754 mmHg 68%
11:00 +3°C° 0.3 mm 7 mps 753 mmHg 63%
12:00 +4°C° 0.3 mm 7 mps 753 mmHg 58%
13:00 +5°C° 0.3 mm 7 mps 753 mmHg 52%
14:00 +4°C° 0.1 mm 7 mps 753 mmHg 52%
15:00 +4°C° 0.1 mm 7 mps 753 mmHg 51%
16:00 +4°C° 0.1 mm 7 mps 753 mmHg 51%
17:00 +2°C° 0 mm 6 mps 753 mmHg 56%
18:00 +1°C° 0 mm 5 mps 753 mmHg 61%
19:00 -1°C° 0 mm 4 mps 754 mmHg 66%
20:00 -1°C° 0 mm 3 mps 753 mmHg 71%
21:00 -2°C° 0 mm 3 mps 753 mmHg 75%
22:00 -3°C° 0 mm 2 mps 753 mmHg 80%
23:00 -3°C° 0 mm 2 mps 753 mmHg 80%

26 April, Monday

Time Temperature Precipitation Wind Pressure Humidity
00:00 -3°C° 0 mm 2 mps 753 mmHg 80%
01:00 -3°C° 0 mm 2 mps 753 mmHg 80%
02:00 -2°C° 0.1 mm 2 mps 752 mmHg 83%
03:00 -2°C° 0.1 mm 2 mps 752 mmHg 86%
04:00 -1°C° 0.1 mm 2 mps 752 mmHg 89%
05:00 0°C° 0.2 mm 3 mps 752 mmHg 83%
06:00 0°C° 0.2 mm 3 mps 751 mmHg 78%
07:00 0°C° 0.2 mm 4 mps 751 mmHg 72%
08:00 +2°C° 0.3 mm 3 mps 751 mmHg 75%
09:00 +3°C° 0.3 mm 3 mps 751 mmHg 78%
10:00 +3°C° 0.3 mm 3 mps 750 mmHg 81%
11:00 +5°C° 0.3 mm 3 mps 750 mmHg 71%
12:00 +7°C° 0.3 mm 3 mps 750 mmHg 61%
13:00 +8°C° 0.3 mm 3 mps 750 mmHg 51%
14:00 +7°C° 0.1 mm 4 mps 750 mmHg 51%
15:00 +7°C° 0.1 mm 4 mps 750 mmHg 51%
16:00 +7°C° 0.1 mm 4 mps 750 mmHg 50%
17:00 +5°C° 0 mm 4 mps 750 mmHg 60%
18:00 +3°C° 0 mm 3 mps 750 mmHg 70%
19:00 +2°C° 0 mm 2 mps 750 mmHg 79%
20:00 +1°C° 0 mm 2 mps 751 mmHg 83%
21:00 -1°C° 0 mm 2 mps 751 mmHg 86%
22:00 -1°C° 0 mm 2 mps 751 mmHg 89%
23:00 0°C° 0 mm 1 mps 751 mmHg 90%

27 April, Tuesday

Time Temperature Precipitation Wind Pressure Humidity
00:00 0°C° 0 mm 1 mps 751 mmHg 91%
01:00 0°C° 0 mm 1 mps 751 mmHg 92%
02:00 0°C° 0 mm 1 mps 751 mmHg 92%
03:00 -1°C° 0 mm 0 mps 751 mmHg 92%
04:00 -2°C° 0 mm 0 mps 751 mmHg 92%
05:00 +1°C° 0 mm 1 mps 751 mmHg 84%
06:00 +3°C° 0 mm 1 mps 751 mmHg 77%
07:00 +5°C° 0 mm 1 mps 751 mmHg 69%
08:00 +5°C° 0 mm 2 mps 750 mmHg 63%
09:00 +7°C° 0 mm 2 mps 750 mmHg 57%
10:00 +9°C° 0 mm 3 mps 750 mmHg 51%
11:00 +10°C° 0 mm 3 mps 749 mmHg 50%
12:00 +10°C° 0 mm 4 mps 749 mmHg 48%
13:00 +11°C° 0 mm 4 mps 748 mmHg 47%
14:00 +11°C° 0 mm 4 mps 748 mmHg 49%
15:00 +12°C° 0 mm 5 mps 747 mmHg 50%
16:00 +12°C° 0 mm 5 mps 747 mmHg 52%
17:00 +9°C° 0 mm 5 mps 746 mmHg 58%
18:00 +7°C° 0 mm 4 mps 746 mmHg 64%
19:00 +6°C° 0 mm 4 mps 746 mmHg 70%
20:00 +5°C° 0 mm 5 mps 745 mmHg 72%
21:00 +5°C° 0 mm 5 mps 745 mmHg 73%
22:00 +5°C° 0 mm 5 mps 745 mmHg 74%
23:00 +3°C° 0 mm 5 mps 744 mmHg 75%
Show more